Weather in Lobok

Russia / Pskov Oblast     55°51′54″N   29°57′35″E
temp.,
°C
wind,
m/s
gust,
m/s
humid.,
%
clouds,
%
prec.,
mm/h
press.,
hPa
HPBL,
m
19 april, mon
mon1900:00+7ene210725 0.0 1022206
03:00+5ene27825 0.0 1023170
06:00+3ne26870 0.0 1023138
09:00+8ene35684 0.0 1023386
12:00+12ene475171 0.0 10231899
15:00+11e4661100 0.2 10231224
18:00+10e466886 0.3 10221099
21:00+7e388498 0.3 1023435
20 april, tue
tue2000:00+7ene3781100 0.0 1022537
03:00+6ne3783100 0.0 1021453
06:00+5ene3687100 0.1 1020683
09:00+4ene3696100 0.8 1019631
12:00+5ene3580100 0.1 1018847
15:00+5ene4577100 0.3 10171002
18:00+3ne2596100 0.1 1015662
21:00+3ene2496100 0.3 1014617
21 april, wed
wed2100:00+3ene2497100 0.2 1012412
03:00+3nnw2398100 0.4 1009492
06:00+3n2497100 0.1 1008475
09:00+3nnw2492100 0.2 1006491
12:00+6wnw357799 0.2 1005918
15:00+5w4682100 0.4 1006803
18:00+5wsw3789100 0.1 1007554
21:00+4sw3792100 0.1 1008310
22 april, thu
thu2200:00+4ssw3989100 0.0 1008347
03:00+3ssw3118998 0.0 1009291
06:00+3s3118796 0.0 1009307
09:00+7s487684 0.0 1009372
12:00+10ssw51169100 0.3 10091448
15:00+7wsw588898 2.8 1010761
18:00+9sw3962100 0.1 10111696
21:00+5ssw2278100 0.1 101230
23 april, fri
fri2300:00+5ssw2874100 0.0 1012232
03:00+3s3881100 0.0 1012189
06:00+3ssw31078100 0.0 1011297
09:00+4s4783100 0.3 1011547
12:00+6ssw5862100 0.1 10111486
15:00+8wsw695591 0.5 10111871
18:00+7wsw475968 0.1 10131445
21:00+4wsw248187 0.3 101489